Volver al catálogo

STARLINK-30614

ActivoComunicacionesVLEO
NORAD 58098·PAYLOAD·🇺🇸 United States

Lanzado Oct 21, 2023 desde Vandenberg Space Force Base

Loading…

Próximos Pases (próximas 24 horas)

TLE

ActualizadoSource: CelesTrak SupGP

Época: Sep 15, 2026, 02:53 UTC

1 58098C 23161B   26258.12062500  .00066228  00000+0  19570-2 0  2587
2 58098  53.1595   2.9470 0001323  92.6200 223.5155 15.34352320    12

Sigue STARLINK-30614 en tiempo real con AllMySat

Download on the App Store